Elmendorf AFB, AK

2:21 AM AKDT on March 25, 2017 (GMT -0800)
Elmendorf Air Force Base

Weather History for PAED - November, 2013

Change the Weather History Date:

Monday, November 25, 2013

  Actual Average Record
Temperature  
Mean Temperature 23 °F -  
Max Temperature 26 °F 25 °F 49 °F (1956)
Min Temperature 20 °F 13 °F -14 °F (2006)
Degree Days  
Heating Degree Days 42    
Moisture  
Dew Point 22 °F    
Average Humidity 94    
Maximum Humidity 100    
Minimum Humidity 90    
Precipitation  
Precipitation 0.00 in - - ()
Snow  
Snow 0.00 in - - ()
Snow Depth 5.00 in    
Sea Level Pressure  
Sea Level Pressure 29.85 in    
Wind  
Wind Speed 5 mph (NW)    
Max Wind Speed 9 mph    
Max Gust Speed -    
Visibility 10 miles    
Events      
Averages and records for this station are not official NWS values.
T = Trace of Precipitation, MM = Missing Value Source: NWS Daily Summary

Daily Weather History Graph

Daily Weather History Graph

Search for Another Location

Airport or City:

Trip Planner

Search our weather history database for the weather conditions in past years. The results will help you decide how hot, cold, wet, or windy it might be!

Date:

Astronomy

Nov. 25, 2013 Rise Set
Actual Time 9:32 AM AKST 3:59 PM AKST
Civil Twilight 8:36 AM AKST 4:55 PM AKST
Nautical Twilight 7:39 AM AKST 5:52 PM AKST
Astronomical Twilight 6:47 AM AKST 6:44 PM AKST
Moon No Moon Rise 1:39 PM AKST
Length of Visible Light 8h 19m
Length of Day
6h 27m
Waning Gibbous, 49% of the Moon is Illuminated
Nov 25
Waning Gibbous
Dec 2
New
Dec 9
First Quarter
Dec 17
Full
Dec 25
Last Quarter

Hourly Weather History & Observations

Time (AKST) Temp. Windchill Dew Point Humidity Pressure Visibility Wind Dir Wind Speed Gust Speed Precip Events Conditions
12:18 AM 24.8 °F 16.1 °F 23.0 °F 93% 29.99 in 10.0 mi West 8.1 mph - N/A   Mostly Cloudy
12:33 AM 24.8 °F 15.3 °F 23.0 °F 93% 29.99 in 10.0 mi WSW 9.2 mph - N/A   Mostly Cloudy
12:58 AM 23.7 °F 17.8 °F 23.0 °F 97% 29.98 in 10.0 mi Variable 4.6 mph - N/A   Overcast
1:23 AM 23.0 °F - 23.0 °F 100% 29.98 in 10.0 mi Variable 2.3 mph - N/A   Overcast
1:58 AM 23.4 °F - 22.3 °F 96% 29.97 in 10.0 mi Calm Calm - N/A   Overcast
2:18 AM 23.0 °F 15.8 °F 23.0 °F 100% 29.97 in 10.0 mi WNW 5.8 mph - N/A   Overcast
2:58 AM 23.0 °F 15.8 °F 21.2 °F 93% 29.96 in 10.0 mi NW 5.8 mph - N/A   Partly Cloudy
3:28 AM 23.0 °F 15.8 °F 23.0 °F 100% 29.95 in 10.0 mi NW 5.8 mph - N/A   Partly Cloudy
3:43 AM 23.0 °F 15.8 °F 23.0 °F 100% 29.95 in 10.0 mi NW 5.8 mph - N/A   Overcast
3:58 AM 23.0 °F 15.8 °F 23.0 °F 100% 29.94 in 10.0 mi NW 5.8 mph - N/A   Overcast
4:03 AM 23.0 °F 15.8 °F 23.0 °F 100% 29.94 in 10.0 mi NW 5.8 mph - N/A   Overcast
4:58 AM 23.9 °F - 22.6 °F 95% 29.92 in 10.0 mi NNW 2.3 mph - N/A   Mostly Cloudy
5:58 AM 23.2 °F 17.2 °F 21.7 °F 94% 29.90 in 10.0 mi NNW 4.6 mph - N/A   Mostly Cloudy
6:08 AM 23.0 °F - 21.2 °F 93% 29.90 in 10.0 mi NW 2.3 mph - N/A   Mostly Cloudy
6:58 AM 20.5 °F 15.6 °F 19.0 °F 94% 29.88 in 10.0 mi NW 3.5 mph - N/A   Mostly Cloudy
7:58 AM 20.7 °F 14.2 °F 19.4 °F 95% 29.86 in 10.0 mi NW 4.6 mph - N/A   Mostly Cloudy
8:58 AM 22.5 °F 16.3 °F 21.2 °F 95% 29.84 in 10.0 mi NNW 4.6 mph - N/A   Overcast
9:58 AM 23.9 °F 16.8 °F 22.3 °F 94% 29.82 in 10.0 mi NW 5.8 mph - N/A   Mostly Cloudy
10:58 AM 25.0 °F 18.1 °F 23.0 °F 92% 29.80 in 10.0 mi WNW 5.8 mph - N/A   Overcast
11:58 AM 24.1 °F - 22.1 °F 92% 29.81 in 10.0 mi NNW 1.2 mph - N/A   Overcast
12:58 PM 24.1 °F 18.2 °F 22.3 °F 93% 29.78 in 10.0 mi NNW 4.6 mph - N/A   Overcast
1:58 PM 26.8 °F 19.3 °F 24.3 °F 90% 29.76 in 10.0 mi WNW 6.9 mph - N/A   Overcast
2:58 PM 26.8 °F 19.3 °F 24.3 °F 90% 29.74 in 10.0 mi NW 6.9 mph - N/A   Overcast
3:58 PM 25.2 °F 18.3 °F 23.2 °F 92% 29.73 in 10.0 mi NNW 5.8 mph - N/A   Overcast
4:58 PM 24.8 °F - 23.2 °F 94% 29.73 in 10.0 mi Calm Calm - N/A   Overcast
5:58 PM 23.9 °F - 22.1 °F 93% 29.73 in 10.0 mi Calm Calm - N/A   Overcast
6:58 PM 22.8 °F 18.2 °F 21.2 °F 93% 29.73 in 10.0 mi NW 3.5 mph - N/A   Overcast
7:58 PM 25.0 °F 20.7 °F 22.5 °F 90% 29.73 in 10.0 mi NW 3.5 mph - N/A   Overcast
8:58 PM 25.5 °F - 23.7 °F 93% 29.74 in 10.0 mi Calm Calm - N/A   Overcast
9:58 PM 23.4 °F - 21.6 °F 93% 29.75 in 10.0 mi Calm Calm - N/A   Overcast
10:58 PM 24.4 °F - 22.3 °F 91% 29.77 in 10.0 mi Calm Calm - N/A   Overcast
11:58 PM 24.6 °F - 22.5 °F 91% 29.78 in 10.0 mi Calm Calm - N/A   Overcast